EW6426 Weather Reports


time (UTC)temp
C
wind
direction
speed
KPH
gust
KPH
rain 1hr
cm
rain 24hr
cm
rain mn
cm
humidity
%
barometer
mb
20260906204600 22 213 0.0 0.0 0.00 0.00 0.00 82 1009.3
20260906203042 22 184 0.0 0.0 0.00 0.00 0.00 82 1009.0
20260906201557 22 315 0.0 0.0 0.00 0.00 0.00 80 1009.0
20260906200039 21 316 0.0 0.0 0.00 0.00 0.00 84 1009.3
20260906194538 20 315 0.0 0.0 0.00 0.00 0.00 88 1010.2
20260906193037 20 323 0.0 0.0 0.00 0.00 0.00 90 1011.2
20260906191536 20 334 0.0 0.0 0.00 0.00 0.00 92 1011.7
20260906190035 20 331 0.0 0.0 0.00 0.00 0.00 91 1011.7
20260906184534 20 318 0.0 0.0 0.00 0.00 0.00 92 1011.7
20260906183035 19 290 0.0 0.0 0.00 0.00 0.00 93 1012.2
20260906181534 19 292 0.0 0.0 0.00 0.00 0.00 94 1012.6
20260906180036 19 296 0.0 0.0 0.00 0.00 0.00 93 1011.6
20260906174530 20 257 0.0 0.0 0.00 0.00 0.00 91 1011.6
20260906173028 22 234 0.0 0.0 0.00 0.00 0.00 91 1012.1
20260906171525 22 248 0.0 0.0 0.00 0.00 0.00 92 1011.6
20260906170023 23 217 0.0 0.0 0.00 0.00 0.00 92 1011.0
20260906164522 23 215 0.0 0.0 0.00 0.00 0.00 92 1011.3
20260906163019 23 183 0.0 0.0 0.00 0.00 0.00 92 1011.4
20260906161523 23 217 0.0 0.0 0.00 0.00 0.00 92 1011.5
20260906160018 23 240 0.0 0.0 0.00 0.00 0.00 91 1011.2
20260906154530 22 165 0.0 0.0 0.00 0.00 0.00 91 1011.3
20260906153016 23 226 0.0 0.0 0.00 0.00 0.00 90 1010.9
20260906151511 23 216 0.0 0.0 0.00 0.00 0.00 91 1010.6
20260906150009 22 207 0.0 0.0 0.00 0.00 0.00 91 1010.6
20260906144513 22 141 0.0 0.0 0.00 0.00 0.00 92 1010.0
20260906143000 22 184 0.0 0.0 0.00 0.00 0.00 92 1010.0
20260906141602 21 159 0.0 0.0 0.00 0.00 0.00 92 1009.9
20260906140100 21 263 0.0 0.0 0.00 0.00 0.00 93 1010.6
20260906134558 21 110 0.0 0.0 0.00 0.00 0.00 93 1009.7
20260906133100 21 76 0.0 0.0 0.00 0.00 0.00 93 1009.6
20260906131601 21 117 0.0 0.0 0.00 0.00 0.00 93 1010.1
20260906130058 21 78 0.0 0.0 0.00 0.00 0.00 94 1010.5
20260906124555 21 86 0.0 0.0 0.00 0.00 0.00 92 1010.2
20260906123100 21 130 0.0 0.0 0.00 0.00 0.00 92 1010.5
20260906121553 21 149 0.0 0.0 0.00 0.00 0.00 93 1010.6
20260906120116 21 143 0.0 0.0 0.00 0.00 0.00 93 1010.9
20260906114602 21 205 0.0 0.0 0.00 0.00 0.00 93 1011.0
20260906113049 21 262 0.0 0.0 0.00 0.00 0.00 93 1010.5
20260906111552 21 49 0.0 0.0 0.00 0.00 0.00 93 1010.0
20260906110148 20 88 0.0 0.0 0.00 0.00 0.00 93 1009.6
20260906104547 20 77 0.0 0.0 0.00 0.00 0.00 92 1009.7
20260906103050 21 147 0.0 0.0 0.00 0.00 0.00 92 1010.0
20260906101545 21 159 0.0 0.0 0.00 0.00 0.00 92 1010.1
20260906100056 21 173 0.0 0.0 0.00 0.00 0.00 92 1009.8
20260906094550 20 176 0.0 0.0 0.00 0.00 0.00 92 1009.7
20260906093042 20 123 0.0 0.0 0.00 0.00 0.00 92 1009.9
20260906091542 20 152 0.0 0.0 0.00 0.00 0.00 91 1010.1
20260906090041 20 152 0.0 0.0 0.00 0.00 0.00 91 1010.2
20260906084541 20 139 0.0 0.0 0.00 0.00 0.00 91 1010.3
20260906083039 20 137 0.0 0.0 0.00 0.00 0.00 91 1010.2
20260906081539 20 130 0.0 0.0 0.00 0.00 0.00 90 1009.9
20260906080035 20 135 0.0 0.0 0.00 0.00 0.00 90 1009.8
20260906074537 21 132 0.0 0.0 0.00 0.00 0.00 88 1009.3
20260906073033 21 153 0.0 0.0 0.00 0.00 0.00 88 1009.3
20260906071532 21 129 0.0 0.0 0.00 0.00 0.00 88 1009.3
20260906070031 21 131 0.0 0.0 0.00 0.00 0.00 88 1009.3
20260906064529 21 130 0.0 0.0 0.00 0.00 0.00 86 1009.4
20260906063031 21 130 0.0 0.0 0.00 0.00 0.00 86 1009.4
20260906061525 21 136 0.0 0.0 0.00 0.00 0.00 87 1009.6
20260906060023 21 140 0.0 0.0 0.00 0.00 0.00 87 1009.8
20260906054537 21 142 0.0 0.0 0.00 0.00 0.00 87 1009.9
20260906053020 22 108 0.0 0.0 0.00 0.00 0.00 87 1009.7
20260906051526 22 132 0.0 0.0 0.00 0.00 0.00 87 1009.6
20260906050022 22 155 0.0 0.0 0.00 0.00 0.00 87 1009.5
20260906044514 22 134 0.0 0.0 0.00 0.00 0.00 87 1009.6
20260906043013 22 167 0.0 0.0 0.00 0.00 0.00 87 1009.6
20260906041512 22 117 0.0 0.0 0.00 0.00 0.00 88 1008.8
20260906040012 22 109 0.0 0.0 0.00 0.00 0.00 88 1008.7
20260906034512 22 116 0.0 0.0 0.00 0.00 0.00 87 1008.7
20260906033011 22 121 0.0 0.0 0.00 0.00 0.00 85 1008.5
20260906031534 23 200 0.0 0.0 0.00 0.00 0.00 81 1008.0
20260906030011 23 186 0.0 0.0 0.00 0.00 0.00 82 1007.7
20260906024533 24 201 0.0 0.0 0.00 0.00 0.00 82 1007.7
20260906023108 25 224 0.0 0.0 0.00 0.00 0.00 80 1008.2
20260906021508 25 238 0.0 0.0 0.00 0.00 0.00 81 1008.5
20260906020007 25 215 0.0 0.0 0.00 0.00 0.00 80 1008.2
20260906014515 25 180 0.0 0.0 0.00 0.00 0.00 80 1008.2
20260906013007 25 219 0.0 0.0 0.00 0.00 0.00 80 1008.4
20260906011506 25 221 0.0 0.0 0.00 0.00 0.00 79 1008.5
20260906010013 24 138 0.0 0.0 0.00 0.00 0.00 84 1009.3
20260906004505 25 252 0.0 0.0 0.00 0.00 0.00 80 1010.4
20260906003006 25 292 0.0 0.0 0.00 0.00 0.00 78 1010.5
20260906001503 26 313 0.0 0.0 0.00 0.00 0.00 74 1011.3
20260906000007 26 292 0.0 0.0 0.00 0.00 0.00 71 1011.3
20260905234606 27 187 0.0 0.0 0.00 0.00 0.00 68 1010.4
20260905233057 27 164 0.0 0.0 0.00 0.00 0.00 66 1009.9
20260905231556 27 164 0.0 0.0 0.00 0.00 0.00 65 1009.5
20260905230057 28 164 0.0 0.0 0.00 0.00 0.00 64 1009.8
20260905224553 28 164 0.0 0.0 0.00 0.00 0.00 61 1009.3
20260905223052 28 171 0.0 0.0 0.00 0.00 0.00 58 1008.8
20260905221552 29 157 0.0 0.0 0.00 0.00 0.00 55 1007.8
20260905220051 30 137 0.0 0.0 0.00 0.00 0.00 54 1007.3
20260905214552 30 141 0.0 0.0 0.00 0.00 0.00 54 1007.9
20260905213049 30 130 0.0 0.0 0.00 0.00 0.00 54 1008.2
20260905211602 30 175 0.0 0.0 0.00 0.00 0.00 54 1008.5
20260905210057 30 141 0.0 0.0 0.00 0.00 0.00 56 1008.4